Location: Unspecified
(0.0000°N, 0.0000°E)
Time: 10:34:59
(UTC+02:00)

Cosmos 1295 Rocket - Visible Passes

Search period start: 02 August 2014 00:00
Search period end: 12 August 2014 00:00
Orbit: 943 x 995 km, 82.9° (Epoch: 01 August)

Date Brightness Start Highest point End Pass type
(mag) Time Alt. Az. Time Alt. Az. Time Alt. Az.
02 Aug 5.7 22:13:12 10° N 22:16:06 29° NNE 22:16:06 29° NNE visible
03 Aug 5.6 22:36:34 10° N 22:40:12 37° NNW 22:40:12 37° NNW visible
04 Aug 5.9 21:17:00 10° NE 21:19:48 18° ENE 21:19:48 18° ENE visible
04 Aug 6.2 23:00:44 10° NNW 23:04:23 28° WNW 23:04:23 28° WNW visible
05 Aug 5.0 21:38:57 10° NNE 21:44:04 40° ENE 21:44:04 40° ENE visible
05 Aug 7.0 23:26:14 10° WNW 23:28:40 15° W 23:28:40 15° W visible
06 Aug 4.3 22:01:57 10° N 22:08:14 85° E 22:08:26 83° SE visible
07 Aug 6.0 20:43:55 10° ENE 20:46:48 13° E 20:48:20 12° ESE visible
07 Aug 5.3 22:25:44 10° NNW 22:31:42 46° W 22:32:57 41° SW visible
08 Aug 5.3 21:04:55 10° NNE 21:10:15 29° E 21:12:59 22° SE visible
08 Aug 6.5 22:50:29 10° NW 22:55:10 22° W 22:57:37 18° WSW visible
09 Aug 4.5 21:27:31 10° N 21:33:42 62° E 21:37:51 22° SSE visible
10 Aug 4.8 21:50:57 10° NNW 21:57:09 65° W 22:03:02 12° S visible
11 Aug 5.7 20:31:09 10° NE 20:35:43 21° E 20:40:17 10° SE visible
11 Aug 6.1 22:15:12 10° NNW 22:20:38 31° W 22:26:07 10° SSW visible
